CW5112 Weather Reports


Display with metric or nautical units.
time (UTC)temp
F
wind
direction
speed
MPH
gust
MPH
rain 1hr
in
rain 24hr
in
rain mn
in
humidity
%
barometer
mb
20260510103050 52 139 0.0 0.0 0.00 0.00 0.00 87 1012.5
20260510101549 52 139 0.0 0.0 0.00 0.00 0.00 86 1012.4
20260510100046 53 139 0.0 0.0 0.00 0.00 0.00 85 1012.3
20260510094544 53 139 0.0 0.0 0.00 0.00 0.00 83 1012.3
20260510093041 54 139 0.0 0.0 0.00 0.00 0.00 83 1012.2
20260510091538 55 146 0.0 0.0 0.00 0.00 0.00 81 1012.1
20260510090036 56 146 0.0 0.0 0.00 0.00 0.00 80 1012.0
20260510084535 56 146 0.0 0.0 0.00 0.00 0.00 80 1011.8
20260510083034 56 148 0.0 0.0 0.00 0.00 0.00 79 1011.8
20260510081532 56 146 0.0 0.0 0.00 0.00 0.00 79 1011.6
20260510080035 55 146 0.0 0.0 0.00 0.00 0.00 79 1011.4
20260510074533 56 146 0.0 0.0 0.00 0.00 0.00 78 1011.3
20260510073025 57 146 0.0 0.0 0.00 0.00 0.00 76 1011.2
20260510071524 57 146 0.0 0.0 0.00 0.00 0.00 75 1011.0
20260510070022 57 146 0.0 0.0 0.00 0.00 0.00 74 1011.1
20260510064519 58 146 0.0 0.0 0.00 0.00 0.00 73 1011.0
20260510063018 59 146 0.0 0.0 0.00 0.00 0.00 71 1011.0
20260510061525 60 146 0.0 0.0 0.00 0.00 0.00 69 1011.0
20260510060030 60 146 0.0 0.0 0.00 0.00 0.00 68 1011.1
20260510054514 61 146 0.0 0.0 0.00 0.00 0.00 68 1011.2
20260510053013 60 146 0.0 0.0 0.00 0.00 0.00 68 1011.2
20260510051513 60 146 0.0 0.0 0.00 0.00 0.00 68 1011.2
20260510050016 60 146 0.0 0.0 0.00 0.00 0.00 68 1011.2
20260510044510 60 146 0.0 0.0 0.00 0.00 0.00 67 1011.1
20260510043009 60 146 0.0 0.0 0.00 0.00 0.00 66 1011.1
20260510041514 61 157 0.0 0.0 0.00 0.00 0.00 65 1011.1
20260510040003 62 157 0.0 0.0 0.00 0.00 0.00 63 1011.1
20260510034502 63 157 0.0 0.0 0.00 0.00 0.00 63 1011.2
20260510033002 62 178 0.0 0.0 0.00 0.00 0.00 63 1011.1
20260510031503 62 178 0.0 0.0 0.00 0.00 0.00 63 1011.1
20260510030001 63 178 0.0 0.0 0.00 0.00 0.00 61 1011.1
20260510024601 63 178 0.0 0.0 0.00 0.00 0.00 61 1010.8
20260510023102 63 178 0.0 0.0 0.00 0.00 0.00 60 1010.8
20260510021600 63 178 0.0 0.0 0.00 0.00 0.00 59 1010.6
20260510014558 63 178 0.0 0.0 0.00 0.00 0.00 60 1009.9
20260510013059 64 178 0.0 0.0 0.00 0.00 0.00 59 1009.7
20260510011618 65 178 0.0 0.0 0.00 0.00 0.00 58 1009.3
20260510010107 65 198 0.0 0.0 0.00 0.00 0.00 57 1009.2
20260510004558 65 198 0.0 0.0 0.00 0.00 0.00 57 1009.1
20260510003103 66 155 0.0 0.0 0.00 0.00 0.00 57 1009.0
20260510001556 67 155 0.0 0.0 0.00 0.00 0.00 56 1008.8
20260510000055 69 155 0.0 0.0 0.00 0.00 0.00 52 1008.5
20260509234603 71 250 0.0 0.0 0.00 0.00 0.00 48 1008.2
20260509233101 72 226 0.0 0.0 0.00 0.00 0.00 48 1008.2
20260509231602 73 15 0.0 1.0 0.00 0.00 0.00 46 1008.0
20260509230054 73 337 0.0 1.0 0.00 0.00 0.00 46 1007.9
20260509224552 73 5 0.0 2.0 0.00 0.00 0.00 47 1007.8
20260509223051 71 304 0.0 0.0 0.00 0.00 0.00 57 1007.8
20260509221550 70 136 0.0 0.0 0.00 0.00 0.00 58 1007.7
20260509220049 70 175 0.0 0.0 0.00 0.00 0.00 62 1007.7
20260509214549 71 176 0.0 0.0 0.00 0.00 0.00 61 1007.6
20260509213101 71 177 0.0 0.0 0.00 0.00 0.00 59 1007.5
20260509211611 71 179 0.0 0.0 0.00 0.00 0.00 55 1007.4
20260509210056 71 243 0.0 0.0 0.00 0.00 0.00 58 1007.5
20260509204558 71 221 0.0 0.0 0.00 0.00 0.00 58 1007.2
20260509203056 72 230 0.0 0.0 0.00 0.00 0.00 60 1007.1
20260509201547 72 236 0.0 0.0 0.00 0.00 0.00 59 1007.0
20260509200046 72 225 0.0 0.0 0.00 0.00 0.00 58 1007.1
20260509194546 72 202 0.0 0.0 0.00 0.00 0.00 57 1007.1
20260509193044 73 218 0.0 0.0 0.00 0.00 0.00 56 1007.1
20260509191543 74 179 0.0 1.0 0.00 0.00 0.00 55 1007.4
20260509190047 74 169 0.0 1.0 0.00 0.00 0.00 55 1007.6
20260509184539 75 215 0.0 0.0 0.00 0.00 0.00 57 1007.6
20260509183038 72 173 0.0 1.0 0.00 0.00 0.00 58 1007.9
20260509181535 73 213 0.0 4.0 0.00 0.00 0.00 56 1008.1
20260509180035 71 185 0.0 2.0 0.00 0.00 0.00 58 1008.2
20260509174535 73 205 0.0 0.0 0.00 0.00 0.00 57 1008.1
20260509173031 72 203 0.0 1.0 0.00 0.00 0.00 58 1008.3
20260509171528 71 234 0.0 2.0 0.00 0.00 0.00 58 1008.6
20260509170025 69 116 0.0 0.0 0.00 0.00 0.00 64 1008.8
20260509164523 70 236 0.0 0.0 0.00 0.00 0.00 63 1009.3
20260509163023 70 202 0.0 0.0 0.00 0.00 0.00 62 1009.4
20260509161520 69 67 0.0 1.0 0.00 0.00 0.00 63 1009.1
20260509160015 67 241 0.0 2.0 0.00 0.00 0.00 65 1009.0
20260509154515 67 118 0.0 0.0 0.00 0.00 0.00 65 1009.4
20260509153018 65 47 0.0 0.0 0.00 0.00 0.00 66 1009.8
20260509151506 63 221 0.0 0.0 0.00 0.00 0.00 69 1009.7
20260509150005 63 211 0.0 0.0 0.00 0.00 0.00 69 1009.7
20260509144504 63 172 0.0 0.0 0.00 0.00 0.00 67 1009.9
20260509143004 64 217 0.0 0.0 0.00 0.00 0.00 68 1010.0
20260509141502 63 273 0.0 1.0 0.00 0.00 0.00 68 1009.9
20260509140119 63 123 0.0 2.0 0.00 0.00 0.00 68 1009.8
20260509134558 61 294 0.0 0.0 0.00 0.00 0.00 72 1009.5
20260509133101 58 195 0.0 0.0 0.00 0.00 0.00 76 1010.4
20260509131551 57 94 0.0 0.0 0.00 0.00 0.00 79 1010.7
20260509130047 57 329 0.0 0.0 0.00 0.00 0.00 79 1010.8
20260509124546 56 329 0.0 0.0 0.00 0.00 0.00 79 1010.7
20260509123046 54 75 0.0 0.0 0.00 0.00 0.00 80 1011.1
20260509121541 53 238 0.0 0.0 0.00 0.00 0.00 79 1011.2
20260509120037 54 238 0.0 0.0 0.00 0.00 0.00 79 1010.9
20260509114535 54 238 0.0 0.0 0.00 0.00 0.00 79 1011.0
20260509113030 54 240 0.0 0.0 0.00 0.00 0.00 78 1011.1
20260509111527 54 104 0.0 0.0 0.00 0.00 0.00 76 1010.9
20260509110023 55 104 0.0 0.0 0.00 0.00 0.00 75 1010.8
20260509104520 54 180 0.0 0.0 0.00 0.00 0.00 74 1010.8